Location: Ch�risy
(50.2331°N, 2.9131°E)
Time: 02:20:47
(UTC+00:00)

NOSS 3-1 (C) - Pass Details

Date: 17 January 2021
Orbit: 723 x 1485 km, 63.3° (Epoch: 22 February)

Event Time Altitude Azimuth Distance (km) Brightness Sun altitude
Rises 19:46:56 0° 316° (NW) 3,870 7.3 -32.9°
Reaches altitude 10° 19:49:24 10° 316° (NW) 3,013 6.6 -33.3°
Enters shadow 19:56:34 85° 275° (W) 1,289 3.9 -34.4°
